* Astronomy

Members Login
Post Info TOPIC: Comet C/2009 U5 (Grauer)


L

Posts: 131433
Date:
Comet C/2009 U5 (Grauer)
Permalink  
 


Orbital elements:
C/2009 U5 (Grauer)
T 2010 Aug. 23.034 TT MPC
q 0.57126 (2000.0) P Q
Peri. 139.324 -0.060019 +0.797257
Node 118.302 -0.996818 -0.079494
e 1.0 Incl. 43.016 +0.052458 -0.598382
From 27 observations 2009 Oct. 23-25.

MPEC 2009 - U100


__________________
«First  <  1 2 | Page of 2  sorted by
Quick Reply

Please log in to post quick replies.



Create your own FREE Forum
Report Abuse
Powered by ActiveBoard